| time (UTC) | temp F | wind direction | speed MPH | gust MPH | rain 1hr in | rain 24hr in | rain mn in | humidity % | barometer mb |
| 20260507012504 | 49 | 112 | 2.0 | 2.0 | 0.00 | 0.00 | 0.00 | 100 | 1021.3 |
| 20260507012004 | 49 | 111 | 2.0 | 3.0 | 0.00 | 0.00 | 0.00 | 100 | 1021.3 |
| 20260507010504 | 49 | 112 | 2.0 | 4.0 | 0.00 | 0.00 | 0.00 | 97 | 1021.3 |
| 20260507010006 | 49 | 112 | 1.0 | 1.0 | 0.00 | 0.00 | 0.00 | 97 | 1021.3 |
| 20260507005504 | 49 | 90 | 3.0 | 3.0 | 0.00 | 0.00 | 0.00 | 97 | 1021.3 |
| 20260507005004 | 49 | 90 | 3.0 | 3.0 | 0.00 | 0.00 | 0.00 | 97 | 1021.3 |
| 20260507004504 | 49 | 90 | 3.0 | 3.0 | 0.00 | 0.00 | 0.00 | 97 | 1022.3 |
| 20260507004004 | 49 | 85 | 2.0 | 3.0 | 0.00 | 0.00 | 0.00 | 97 | 1022.3 |
| 20260507003504 | 49 | 79 | 2.0 | 3.0 | 0.00 | 0.00 | 0.00 | 97 | 1022.3 |
| 20260507003004 | 50 | 83 | 2.0 | 2.0 | 0.00 | 0.00 | 0.00 | 97 | 1022.3 |
| 20260507002504 | 50 | 97 | 2.0 | 3.0 | 0.00 | 0.00 | 0.00 | 97 | 1022.3 |
| 20260507002004 | 50 | 104 | 2.0 | 3.0 | 0.00 | 0.00 | 0.00 | 96 | 1022.3 |
| 20260507001504 | 50 | 110 | 2.0 | 2.0 | 0.00 | 0.00 | 0.00 | 96 | 1022.3 |
| 20260507001004 | 50 | 112 | 2.0 | 2.0 | 0.00 | 0.00 | 0.00 | 96 | 1022.3 |
| 20260507000505 | 50 | 109 | 2.0 | 3.0 | 0.00 | 0.00 | 0.00 | 96 | 1022.3 |
| 20260507000006 | 50 | 106 | 2.0 | 3.0 | 0.00 | 0.00 | 0.00 | 96 | 1022.3 |
| 20260506235504 | 50 | 107 | 2.0 | 2.0 | 0.00 | 0.00 | 0.00 | 96 | 1022.3 |
| 20260506235004 | 51 | 99 | 3.0 | 4.0 | 0.00 | 0.00 | 0.00 | 96 | 1022.3 |
| 20260506234504 | 51 | 102 | 3.0 | 4.0 | 0.00 | 0.00 | 0.00 | 95 | 1022.3 |
| 20260506233504 | 51 | 106 | 3.0 | 3.0 | 0.00 | 0.00 | 0.00 | 95 | 1022.3 |
| 20260506233004 | 51 | 105 | 2.0 | 3.0 | 0.00 | 0.00 | 0.00 | 95 | 1022.3 |
| 20260506232504 | 51 | 93 | 2.0 | 3.0 | 0.00 | 0.00 | 0.00 | 95 | 1022.3 |
| 20260506232005 | 51 | 101 | 3.0 | 4.0 | 0.00 | 0.00 | 0.00 | 95 | 1022.3 |
| 20260506231504 | 52 | 108 | 2.0 | 4.0 | 0.00 | 0.00 | 0.00 | 95 | 1022.3 |
| 20260506231005 | 52 | 109 | 2.0 | 3.0 | 0.00 | 0.00 | 0.00 | 95 | 1022.3 |
| 20260506230504 | 52 | 108 | 2.0 | 3.0 | 0.00 | 0.00 | 0.00 | 95 | 1022.3 |
| 20260506230009 | 52 | 109 | 3.0 | 4.0 | 0.00 | 0.00 | 0.00 | 95 | 1022.3 |
| 20260506225504 | 52 | 106 | 2.0 | 4.0 | 0.00 | 0.00 | 0.00 | 95 | 1022.3 |
| 20260506225004 | 52 | 108 | 2.0 | 2.0 | 0.00 | 0.00 | 0.00 | 94 | 1022.3 |
| 20260506224504 | 52 | 102 | 2.0 | 3.0 | 0.00 | 0.00 | 0.00 | 94 | 1022.3 |
| 20260506224004 | 52 | 102 | 2.0 | 3.0 | 0.00 | 0.00 | 0.00 | 94 | 1022.3 |
| 20260506223504 | 52 | 94 | 2.0 | 3.0 | 0.00 | 0.00 | 0.00 | 94 | 1022.3 |
| 20260506223004 | 52 | 104 | 2.0 | 4.0 | 0.00 | 0.00 | 0.00 | 94 | 1022.3 |
| 20260506222505 | 52 | 112 | 2.0 | 4.0 | 0.00 | 0.00 | 0.00 | 94 | 1022.3 |
| 20260506222005 | 52 | 112 | 3.0 | 4.0 | 0.00 | 0.00 | 0.00 | 94 | 1022.3 |
| 20260506221504 | 52 | 112 | 3.0 | 3.0 | 0.00 | 0.00 | 0.00 | 93 | 1022.3 |
| 20260506221004 | 52 | 112 | 2.0 | 3.0 | 0.00 | 0.00 | 0.00 | 92 | 1022.3 |
| 20260506220504 | 53 | 112 | 1.0 | 3.0 | 0.00 | 0.00 | 0.00 | 92 | 1022.3 |
| 20260506220006 | 53 | 112 | 1.0 | 2.0 | 0.00 | 0.00 | 0.00 | 91 | 1022.3 |
| 20260506215504 | 53 | 112 | 0.0 | 2.0 | 0.00 | 0.00 | 0.00 | 91 | 1022.3 |
| 20260506215004 | 53 | 0 | 0.0 | 0.0 | 0.00 | 0.00 | 0.00 | 91 | 1022.3 |
| 20260506214504 | 53 | 112 | 0.0 | 1.0 | 0.00 | 0.00 | 0.00 | 91 | 1022.3 |
| 20260506214004 | 53 | 97 | 1.0 | 3.0 | 0.00 | 0.00 | 0.00 | 91 | 1022.3 |
| 20260506213504 | 53 | 82 | 2.0 | 3.0 | 0.00 | 0.00 | 0.00 | 91 | 1022.3 |
| 20260506213004 | 53 | 80 | 1.0 | 3.0 | 0.00 | 0.00 | 0.00 | 91 | 1022.3 |
| 20260506212504 | 53 | 100 | 1.0 | 2.0 | 0.00 | 0.00 | 0.00 | 91 | 1022.3 |
| 20260506212004 | 53 | 108 | 2.0 | 3.0 | 0.00 | 0.00 | 0.00 | 91 | 1022.3 |
| 20260506211504 | 53 | 84 | 2.0 | 3.0 | 0.00 | 0.00 | 0.00 | 91 | 1022.3 |
| 20260506211004 | 53 | 76 | 2.0 | 3.0 | 0.00 | 0.00 | 0.00 | 90 | 1022.3 |
| 20260506210504 | 53 | 77 | 1.0 | 2.0 | 0.00 | 0.00 | 0.00 | 90 | 1022.3 |
| 20260506210006 | 53 | 0 | 0.0 | 0.0 | 0.00 | 0.00 | 0.00 | 90 | 1022.3 |
| 20260506205504 | 53 | 158 | 0.0 | 1.0 | 0.00 | 0.00 | 0.00 | 90 | 1022.3 |
| 20260506205004 | 53 | 158 | 1.0 | 2.0 | 0.00 | 0.00 | 0.00 | 90 | 1022.3 |
| 20260506204504 | 53 | 158 | 1.0 | 2.0 | 0.00 | 0.00 | 0.00 | 90 | 1022.3 |
| 20260506204004 | 53 | 90 | 0.0 | 2.0 | 0.00 | 0.00 | 0.00 | 90 | 1022.3 |
| 20260506143005 | 61 | 85 | 5.0 | 7.0 | 0.00 | 0.00 | 0.00 | 57 | 1021.3 |
| 20260506142505 | 61 | 88 | 6.0 | 7.0 | 0.00 | 0.00 | 0.00 | 55 | 1021.3 |
| 20260506142006 | 61 | 91 | 5.0 | 7.0 | 0.00 | 0.00 | 0.00 | 55 | 1021.3 |
| 20260506141505 | 61 | 87 | 6.0 | 8.0 | 0.00 | 0.00 | 0.00 | 56 | 1021.3 |
| 20260506141005 | 61 | 79 | 7.0 | 8.0 | 0.00 | 0.00 | 0.00 | 56 | 1021.3 |
| 20260506140505 | 61 | 77 | 7.0 | 9.0 | 0.00 | 0.00 | 0.00 | 55 | 1021.3 |
| 20260506140007 | 61 | 82 | 7.0 | 9.0 | 0.00 | 0.00 | 0.00 | 58 | 1021.3 |
| 20260506135505 | 61 | 91 | 6.0 | 7.0 | 0.00 | 0.00 | 0.00 | 58 | 1021.3 |
| 20260506135005 | 60 | 92 | 5.0 | 6.0 | 0.00 | 0.00 | 0.00 | 59 | 1021.3 |
| 20260506134505 | 61 | 87 | 6.0 | 8.0 | 0.00 | 0.00 | 0.00 | 59 | 1021.3 |
| 20260506134005 | 60 | 80 | 6.0 | 8.0 | 0.00 | 0.00 | 0.00 | 58 | 1021.3 |
| 20260506133505 | 61 | 80 | 4.0 | 8.0 | 0.00 | 0.00 | 0.00 | 59 | 1021.3 |
| 20260506133005 | 60 | 83 | 4.0 | 5.0 | 0.00 | 0.00 | 0.00 | 60 | 1021.3 |
| 20260506132505 | 60 | 90 | 4.0 | 8.0 | 0.00 | 0.00 | 0.00 | 60 | 1021.3 |
| 20260506132005 | 60 | 97 | 4.0 | 8.0 | 0.00 | 0.00 | 0.00 | 59 | 1021.3 |
| 20260506131505 | 60 | 88 | 4.0 | 6.0 | 0.00 | 0.00 | 0.00 | 60 | 1021.3 |
| 20260506131005 | 60 | 94 | 4.0 | 6.0 | 0.00 | 0.00 | 0.00 | 62 | 1021.3 |
| 20260506130505 | 60 | 92 | 4.0 | 6.0 | 0.00 | 0.00 | 0.00 | 63 | 1021.3 |
| 20260506130007 | 59 | 88 | 5.0 | 6.0 | 0.00 | 0.00 | 0.00 | 63 | 1021.3 |
| 20260506125505 | 59 | 74 | 5.0 | 6.0 | 0.00 | 0.00 | 0.00 | 64 | 1021.3 |
| 20260506125006 | 59 | 55 | 5.0 | 8.0 | 0.00 | 0.00 | 0.00 | 65 | 1021.3 |
| 20260506124505 | 59 | 72 | 5.0 | 8.0 | 0.00 | 0.00 | 0.00 | 65 | 1021.3 |
| 20260506124006 | 59 | 85 | 4.0 | 8.0 | 0.00 | 0.00 | 0.00 | 65 | 1021.3 |
| 20260506123504 | 59 | 86 | 4.0 | 8.0 | 0.00 | 0.00 | 0.00 | 66 | 1021.3 |
| 20260506123005 | 58 | 82 | 5.0 | 8.0 | 0.00 | 0.00 | 0.00 | 67 | 1021.3 |
| 20260506122505 | 58 | 81 | 5.0 | 8.0 | 0.00 | 0.00 | 0.00 | 67 | 1021.3 |
| 20260506122005 | 58 | 79 | 4.0 | 6.0 | 0.00 | 0.00 | 0.00 | 66 | 1021.3 |
| 20260506121505 | 58 | 75 | 4.0 | 6.0 | 0.00 | 0.00 | 0.00 | 67 | 1022.3 |
| 20260506121005 | 58 | 67 | 4.0 | 5.0 | 0.00 | 0.00 | 0.00 | 67 | 1022.3 |
| 20260506120505 | 58 | 76 | 4.0 | 7.0 | 0.00 | 0.00 | 0.00 | 68 | 1022.3 |
| 20260506120007 | 58 | 89 | 4.0 | 7.0 | 0.00 | 0.00 | 0.00 | 68 | 1022.3 |
| 20260506115505 | 58 | 85 | 4.0 | 5.0 | 0.00 | 0.00 | 0.00 | 67 | 1022.3 |
| 20260506115005 | 58 | 78 | 4.0 | 6.0 | 0.00 | 0.00 | 0.00 | 67 | 1022.3 |
| 20260506114505 | 58 | 77 | 4.0 | 6.0 | 0.00 | 0.00 | 0.00 | 69 | 1022.3 |
| 20260506114005 | 58 | 93 | 4.0 | 7.0 | 0.00 | 0.00 | 0.00 | 71 | 1022.3 |
| 20260506113505 | 57 | 91 | 5.0 | 7.0 | 0.00 | 0.00 | 0.00 | 70 | 1022.3 |
| 20260506113005 | 57 | 84 | 5.0 | 7.0 | 0.00 | 0.00 | 0.00 | 70 | 1021.3 |
| 20260506112505 | 57 | 84 | 4.0 | 7.0 | 0.00 | 0.00 | 0.00 | 71 | 1021.3 |
| 20260506112005 | 57 | 92 | 3.0 | 4.0 | 0.00 | 0.00 | 0.00 | 71 | 1021.3 |
| 20260506111505 | 57 | 86 | 3.0 | 5.0 | 0.00 | 0.00 | 0.00 | 72 | 1021.3 |
| 20260506111005 | 57 | 85 | 2.0 | 5.0 | 0.00 | 0.00 | 0.00 | 73 | 1021.3 |
| 20260506110505 | 57 | 127 | 1.0 | 2.0 | 0.00 | 0.00 | 0.00 | 74 | 1021.3 |
| 20260506110007 | 57 | 254 | 2.0 | 4.0 | 0.00 | 0.00 | 0.00 | 76 | 1022.3 |
| 20260506105505 | 56 | 248 | 2.0 | 4.0 | 0.00 | 0.00 | 0.00 | 76 | 1022.3 |
| 20260506105004 | 56 | 262 | 2.0 | 3.0 | 0.00 | 0.00 | 0.00 | 76 | 1022.3 |
| 20260506104505 | 56 | 275 | 1.0 | 3.0 | 0.00 | 0.00 | 0.00 | 75 | 1021.3 |
| 20260506104005 | 56 | 0 | 0.0 | 0.0 | 0.00 | 0.00 | 0.00 | 75 | 1021.3 |
| 20260506103504 | 56 | 292 | 6.0 | 6.0 | 0.00 | 0.00 | 0.00 | 74 | 1021.3 |
| 20260506103005 | 57 | 292 | 6.0 | 6.0 | 0.00 | 0.00 | 0.00 | 73 | 1021.3 |
| 20260506102505 | 57 | 292 | 6.0 | 6.0 | 0.00 | 0.00 | 0.00 | 73 | 1021.3 |
| 20260506102005 | 57 | 292 | 6.0 | 6.0 | 0.00 | 0.00 | 0.00 | 74 | 1021.3 |
| 20260506101505 | 57 | 292 | 6.0 | 6.0 | 0.00 | 0.00 | 0.00 | 74 | 1021.3 |
| 20260506101006 | 57 | 292 | 6.0 | 6.0 | 0.00 | 0.00 | 0.00 | 74 | 1021.3 |
| 20260506100504 | 57 | 292 | 6.0 | 6.0 | 0.00 | 0.00 | 0.00 | 74 | 1021.3 |
| 20260506100008 | 58 | 292 | 5.0 | 6.0 | 0.00 | 0.00 | 0.00 | 73 | 1021.3 |
| 20260506095505 | 58 | 304 | 5.0 | 6.0 | 0.00 | 0.00 | 0.00 | 73 | 1021.3 |
| 20260506095005 | 58 | 309 | 5.0 | 6.0 | 0.00 | 0.00 | 0.00 | 71 | 1021.3 |
| 20260506094505 | 58 | 292 | 5.0 | 5.0 | 0.00 | 0.00 | 0.00 | 71 | 1021.3 |
| 20260506094005 | 59 | 252 | 2.0 | 4.0 | 0.00 | 0.00 | 0.00 | 69 | 1021.3 |
| 20260506093505 | 59 | 252 | 2.0 | 4.0 | 0.00 | 0.00 | 0.00 | 69 | 1021.3 |
| 20260506093004 | 59 | 252 | 2.0 | 4.0 | 0.00 | 0.00 | 0.00 | 68 | 1021.3 |
| 20260506092505 | 60 | 136 | 2.0 | 4.0 | 0.00 | 0.00 | 0.00 | 65 | 1021.3 |
| 20260506092005 | 60 | 93 | 3.0 | 4.0 | 0.00 | 0.00 | 0.00 | 65 | 1021.3 |
| 20260506091505 | 59 | 107 | 3.0 | 5.0 | 0.00 | 0.00 | 0.00 | 66 | 1021.3 |
| 20260506091004 | 59 | 110 | 3.0 | 5.0 | 0.00 | 0.00 | 0.00 | 66 | 1021.3 |
| 20260506090505 | 59 | 99 | 3.0 | 5.0 | 0.00 | 0.00 | 0.00 | 66 | 1021.3 |
| 20260506090007 | 59 | 97 | 3.0 | 5.0 | 0.00 | 0.00 | 0.00 | 66 | 1021.3 |
| 20260506085504 | 59 | 87 | 3.0 | 6.0 | 0.00 | 0.00 | 0.00 | 65 | 1021.3 |
| 20260506085005 | 60 | 92 | 3.0 | 6.0 | 0.00 | 0.00 | 0.00 | 64 | 1021.3 |
| 20260506084505 | 60 | 88 | 4.0 | 6.0 | 0.00 | 0.00 | 0.00 | 64 | 1021.3 |
| 20260506084005 | 60 | 59 | 3.0 | 6.0 | 0.00 | 0.00 | 0.00 | 65 | 1021.3 |
| 20260506083505 | 60 | 44 | 2.0 | 3.0 | 0.00 | 0.00 | 0.00 | 66 | 1021.3 |
| 20260506083004 | 60 | 70 | 1.0 | 3.0 | 0.00 | 0.00 | 0.00 | 69 | 1021.3 |
| 20260506082505 | 60 | 94 | 2.0 | 3.0 | 0.00 | 0.00 | 0.00 | 68 | 1021.3 |
| 20260506082005 | 60 | 89 | 2.0 | 3.0 | 0.00 | 0.00 | 0.00 | 67 | 1021.3 |
| 20260506081504 | 60 | 73 | 2.0 | 4.0 | 0.00 | 0.00 | 0.00 | 71 | 1021.3 |
| 20260506081005 | 58 | 77 | 2.0 | 4.0 | 0.00 | 0.00 | 0.00 | 74 | 1021.3 |
| 20260506080505 | 57 | 86 | 2.0 | 4.0 | 0.00 | 0.00 | 0.00 | 74 | 1021.3 |
| 20260506073505 | 55 | 42 | 3.0 | 4.0 | 0.00 | 0.00 | 0.00 | 82 | 1021.3 |
| 20260506073005 | 54 | 63 | 1.0 | 3.0 | 0.00 | 0.00 | 0.00 | 84 | 1021.3 |
| 20260506072505 | 54 | 68 | 1.0 | 3.0 | 0.00 | 0.00 | 0.00 | 84 | 1021.3 |
| 20260506072005 | 54 | 68 | 1.0 | 3.0 | 0.00 | 0.00 | 0.00 | 84 | 1021.3 |
| 20260506071504 | 54 | 68 | 0.0 | 2.0 | 0.00 | 0.00 | 0.00 | 84 | 1021.3 |
| 20260506071004 | 54 | 68 | 0.0 | 2.0 | 0.00 | 0.00 | 0.00 | 84 | 1021.3 |
| 20260506070504 | 54 | 68 | 0.0 | 1.0 | 0.00 | 0.00 | 0.00 | 84 | 1021.3 |
| 20260506062504 | 53 | 49 | 2.0 | 3.0 | 0.00 | 0.00 | 0.00 | 88 | 1021.3 |
| 20260506062004 | 53 | 49 | 1.0 | 3.0 | 0.00 | 0.00 | 0.00 | 88 | 1021.3 |
| 20260506061504 | 53 | 337 | 0.0 | 2.0 | 0.00 | 0.00 | 0.00 | 88 | 1021.3 |
| 20260506061005 | 53 | 20 | 1.0 | 3.0 | 0.00 | 0.00 | 0.00 | 88 | 1021.3 |
| 20260506060505 | 53 | 12 | 1.0 | 3.0 | 0.00 | 0.00 | 0.00 | 88 | 1021.3 |
| 20260506051005 | 52 | 297 | 1.0 | 2.0 | 0.00 | 0.00 | 0.00 | 86 | 1021.3 |
| 20260506050504 | 52 | 313 | 0.0 | 1.0 | 0.00 | 0.00 | 0.00 | 86 | 1021.3 |
| 20260506045004 | 52 | 6 | 2.0 | 3.0 | 0.00 | 0.00 | 0.00 | 85 | 1021.3 |
| 20260506044505 | 52 | 344 | 2.0 | 3.0 | 0.00 | 0.00 | 0.00 | 85 | 1021.3 |
| 20260506044004 | 52 | 336 | 2.0 | 3.0 | 0.00 | 0.00 | 0.00 | 85 | 1021.3 |
| 20260506043504 | 52 | 333 | 2.0 | 2.0 | 0.00 | 0.00 | 0.00 | 85 | 1021.3 |
| 20260506043004 | 52 | 335 | 1.0 | 2.0 | 0.00 | 0.00 | 0.00 | 85 | 1021.3 |
| 20260506042504 | 52 | 4 | 1.0 | 2.0 | 0.00 | 0.00 | 0.00 | 85 | 1021.3 |
| 20260506042004 | 52 | 9 | 1.0 | 2.0 | 0.00 | 0.00 | 0.00 | 85 | 1021.3 |
| 20260506041504 | 52 | 350 | 1.0 | 3.0 | 0.00 | 0.00 | 0.00 | 85 | 1021.3 |
| 20260506041005 | 52 | 336 | 1.0 | 3.0 | 0.00 | 0.00 | 0.00 | 84 | 1021.3 |
| 20260506040504 | 52 | 330 | 1.0 | 2.0 | 0.00 | 0.00 | 0.00 | 84 | 1021.3 |
| 20260506040006 | 52 | 3 | 2.0 | 3.0 | 0.00 | 0.00 | 0.00 | 84 | 1021.3 |
| 20260506035505 | 52 | 19 | 2.0 | 3.0 | 0.00 | 0.00 | 0.00 | 84 | 1021.3 |
| 20260506035004 | 52 | 16 | 2.0 | 4.0 | 0.00 | 0.00 | 0.00 | 84 | 1021.3 |
| 20260506034504 | 52 | 28 | 3.0 | 4.0 | 0.00 | 0.00 | 0.00 | 85 | 1021.3 |
| 20260506034004 | 52 | 45 | 4.0 | 7.0 | 0.00 | 0.00 | 0.00 | 85 | 1021.3 |
| 20260506033504 | 52 | 57 | 4.0 | 7.0 | 0.00 | 0.00 | 0.00 | 85 | 1021.3 |
| 20260506033005 | 52 | 60 | 4.0 | 7.0 | 0.00 | 0.00 | 0.00 | 85 | 1021.3 |
| 20260506032504 | 52 | 45 | 3.0 | 6.0 | 0.00 | 0.00 | 0.00 | 85 | 1021.3 |
| 20260506032004 | 52 | 31 | 2.0 | 3.0 | 0.00 | 0.00 | 0.00 | 84 | 1021.3 |
| 20260506031504 | 53 | 22 | 1.0 | 1.0 | 0.00 | 0.00 | 0.00 | 84 | 1021.3 |
| 20260506031004 | 52 | 22 | 1.0 | 1.0 | 0.00 | 0.00 | 0.00 | 83 | 1021.3 |
| 20260506030504 | 52 | 22 | 1.0 | 1.0 | 0.00 | 0.00 | 0.00 | 83 | 1021.3 |
| 20260506030006 | 53 | 22 | 1.0 | 1.0 | 0.00 | 0.00 | 0.00 | 83 | 1021.3 |
| 20260506025504 | 52 | 22 | 1.0 | 1.0 | 0.00 | 0.00 | 0.00 | 83 | 1021.3 |
| 20260506025004 | 52 | 10 | 1.0 | 1.0 | 0.00 | 0.00 | 0.00 | 83 | 1021.3 |
| 20260506024504 | 52 | 351 | 2.0 | 5.0 | 0.00 | 0.00 | 0.00 | 83 | 1021.3 |
| 20260506024004 | 53 | 339 | 2.0 | 5.0 | 0.00 | 0.00 | 0.00 | 83 | 1021.3 |
| 20260506023504 | 53 | 336 | 2.0 | 4.0 | 0.00 | 0.00 | 0.00 | 83 | 1021.3 |
| 20260506023004 | 53 | 330 | 1.0 | 2.0 | 0.00 | 0.00 | 0.00 | 83 | 1021.3 |
| 20260506022505 | 53 | 327 | 2.0 | 3.0 | 0.00 | 0.00 | 0.00 | 83 | 1021.3 |
| 20260506022004 | 53 | 330 | 1.0 | 3.0 | 0.00 | 0.00 | 0.00 | 83 | 1021.3 |
| 20260506021504 | 53 | 6 | 1.0 | 4.0 | 0.00 | 0.00 | 0.00 | 83 | 1021.3 |
| 20260506021005 | 53 | 350 | 2.0 | 4.0 | 0.00 | 0.00 | 0.00 | 83 | 1021.3 |
| 20260506020504 | 53 | 343 | 2.0 | 4.0 | 0.00 | 0.00 | 0.00 | 83 | 1021.3 |
| 20260506020006 | 53 | 5 | 2.0 | 4.0 | 0.00 | 0.00 | 0.00 | 83 | 1021.3 |
| 20260506015504 | 53 | 10 | 2.0 | 4.0 | 0.00 | 0.00 | 0.00 | 83 | 1021.3 |
| 20260506015004 | 53 | 3 | 2.0 | 4.0 | 0.00 | 0.00 | 0.00 | 83 | 1021.3 |
| 20260506014504 | 53 | 355 | 2.0 | 4.0 | 0.00 | 0.00 | 0.00 | 83 | 1021.3 |
| 20260506014004 | 53 | 345 | 2.0 | 3.0 | 0.00 | 0.00 | 0.00 | 82 | 1021.3 |
| 20260506013504 | 53 | 359 | 2.0 | 3.0 | 0.00 | 0.00 | 0.00 | 83 | 1021.3 |
| 20260506013004 | 53 | 8 | 2.0 | 2.0 | 0.00 | 0.00 | 0.00 | 83 | 1021.3 |